date,time,SUV Intensity [MED/Hr],UV Index,Daily total [MED],Since Last [MED]
29/04/2023,00:01:10,0.000,0.0,0.0,0.0
29/04/2023,00:02:10,0.001,0.0,0.0,0.0
29/04/2023,00:03:10,0.001,0.0,0.0,0.0
29/04/2023,00:04:10,0.001,0.0,0.0,0.0
29/04/2023,00:05:10,0.000,0.0,0.0,0.0
29/04/2023,00:06:09,0.000,0.0,0.0,0.0
29/04/2023,00:07:10,0.000,0.0,0.0,0.0
29/04/2023,00:08:10,0.000,0.0,0.0,0.0
29/04/2023,00:09:10,0.000,0.0,0.0,0.0
29/04/2023,00:10:10,0.000,0.0,0.0,0.0
29/04/2023,00:11:10,-0.001,0.0,0.0,0.0
29/04/2023,00:12:09,0.000,0.0,0.0,0.0
29/04/2023,00:13:10,0.000,0.0,0.0,0.0
29/04/2023,00:14:10,0.000,0.0,0.0,0.0
29/04/2023,00:15:10,-0.000,0.0,0.0,0.0
29/04/2023,00:16:10,0.000,0.0,0.0,0.0
29/04/2023,00:17:10,0.001,0.0,0.0,0.0
29/04/2023,00:18:10,-0.000,0.0,0.0,0.0
29/04/2023,00:19:10,0.000,0.0,0.0,0.0
29/04/2023,00:20:09,-0.000,0.0,0.0,0.0
29/04/2023,00:21:10,-0.000,0.0,0.0,0.0
29/04/2023,00:22:10,0.000,0.0,0.0,0.0
29/04/2023,00:23:10,0.000,0.0,0.0,0.0
29/04/2023,00:24:10,0.000,0.0,0.0,0.0
29/04/2023,00:25:09,-0.000,0.0,0.0,0.0
29/04/2023,00:26:10,0.000,0.0,0.0,0.0
29/04/2023,00:27:10,-0.000,0.0,0.0,0.0
29/04/2023,00:28:09,0.000,0.0,0.0,0.0
29/04/2023,00:29:10,0.000,0.0,0.0,0.0
29/04/2023,00:30:10,0.000,0.0,0.0,0.0
29/04/2023,00:31:10,-0.001,0.0,0.0,0.0
29/04/2023,00:32:10,-0.000,0.0,0.0,0.0
29/04/2023,00:33:09,0.000,0.0,0.0,0.0
29/04/2023,00:34:10,0.000,0.0,0.0,0.0
29/04/2023,00:35:10,-0.001,0.0,0.0,0.0
29/04/2023,00:36:10,0.000,0.0,0.0,0.0
29/04/2023,00:37:10,0.000,0.0,0.0,0.0
29/04/2023,00:38:10,-0.000,0.0,0.0,0.0
29/04/2023,00:39:10,0.000,0.0,0.0,0.0
29/04/2023,00:40:10,-0.000,0.0,0.0,0.0
29/04/2023,00:41:10,0.000,0.0,0.0,0.0
29/04/2023,00:42:10,-0.000,0.0,0.0,0.0
29/04/2023,00:43:10,0.000,0.0,0.0,0.0
29/04/2023,00:44:10,0.001,0.0,0.0,0.0
29/04/2023,00:45:09,0.001,0.0,0.0,0.0
29/04/2023,00:46:10,0.000,0.0,0.0,0.0
29/04/2023,00:47:10,0.001,0.0,0.0,0.0
29/04/2023,00:48:09,0.000,0.0,0.0,0.0
29/04/2023,00:49:10,-0.000,0.0,0.0,0.0
29/04/2023,00:50:10,-0.001,0.0,0.0,0.0
29/04/2023,00:51:10,0.000,0.0,0.0,0.0
29/04/2023,00:52:10,0.000,0.0,0.0,0.0
29/04/2023,00:53:10,0.000,0.0,0.0,0.0
29/04/2023,00:54:10,0.000,0.0,0.0,0.0
29/04/2023,00:55:10,0.001,0.0,0.0,0.0
29/04/2023,00:56:10,-0.001,0.0,0.0,0.0
29/04/2023,00:57:10,0.000,0.0,0.0,0.0
29/04/2023,00:58:09,0.000,0.0,0.0,0.0
29/04/2023,00:59:10,0.000,0.0,0.0,0.0
29/04/2023,01:00:10,0.000,0.0,0.0,0.0
29/04/2023,01:01:10,-0.000,0.0,0.0,0.0
29/04/2023,01:02:10,-0.001,0.0,0.0,0.0
29/04/2023,01:03:10,0.001,0.0,0.0,0.0
29/04/2023,01:04:10,0.000,0.0,0.0,0.0
29/04/2023,01:05:10,-0.000,0.0,0.0,0.0
29/04/2023,01:06:10,0.001,0.0,0.0,0.0
29/04/2023,01:07:10,-0.001,0.0,0.0,0.0
29/04/2023,01:08:10,0.000,0.0,0.0,0.0
29/04/2023,01:09:10,0.000,0.0,0.0,0.0
29/04/2023,01:10:11,0.000,0.0,0.0,0.0
29/04/2023,01:11:10,0.001,0.0,0.0,0.0
29/04/2023,01:12:10,0.000,0.0,0.0,0.0
29/04/2023,01:13:10,-0.001,0.0,0.0,0.0
29/04/2023,01:14:10,0.000,0.0,0.0,0.0
29/04/2023,01:15:10,0.001,0.0,0.0,0.0
29/04/2023,01:16:10,0.000,0.0,0.0,0.0
29/04/2023,01:17:10,-0.001,0.0,0.0,0.0
29/04/2023,01:18:10,0.000,0.0,0.0,0.0
29/04/2023,01:19:10,0.001,0.0,0.0,0.0
29/04/2023,01:20:10,0.000,0.0,0.0,0.0
29/04/2023,01:21:10,-0.001,0.0,0.0,0.0
29/04/2023,01:22:10,0.001,0.0,0.0,0.0
29/04/2023,01:23:10,-0.001,0.0,0.0,0.0
29/04/2023,01:24:10,0.000,0.0,0.0,0.0
29/04/2023,01:25:10,0.000,0.0,0.0,0.0
29/04/2023,01:26:10,0.000,0.0,0.0,0.0
29/04/2023,01:27:10,0.000,0.0,0.0,0.0
29/04/2023,01:28:10,0.000,0.0,0.0,0.0
29/04/2023,01:29:10,0.000,0.0,0.0,0.0
29/04/2023,01:30:10,0.000,0.0,0.0,0.0
29/04/2023,01:31:10,-0.000,0.0,0.0,0.0
29/04/2023,01:32:10,0.001,0.0,0.0,0.0
29/04/2023,01:33:10,-0.001,0.0,0.0,0.0
29/04/2023,01:34:10,0.000,0.0,0.0,0.0
29/04/2023,01:35:10,0.001,0.0,0.0,0.0
29/04/2023,01:36:10,0.001,0.0,0.0,0.0
29/04/2023,01:37:10,0.000,0.0,0.0,0.0
29/04/2023,01:38:10,0.000,0.0,0.0,0.0
29/04/2023,01:39:10,0.000,0.0,0.0,0.0
29/04/2023,01:40:10,0.000,0.0,0.0,0.0
29/04/2023,01:41:10,0.001,0.0,0.0,0.0
29/04/2023,01:42:10,0.000,0.0,0.0,0.0
29/04/2023,01:43:10,0.000,0.0,0.0,0.0
29/04/2023,01:44:10,0.001,0.0,0.0,0.0
29/04/2023,01:45:10,0.000,0.0,0.0,0.0
29/04/2023,01:46:10,0.000,0.0,0.0,0.0
29/04/2023,01:47:10,0.000,0.0,0.0,0.0
29/04/2023,01:48:10,0.000,0.0,0.0,0.0
29/04/2023,01:49:10,0.001,0.0,0.0,0.0
29/04/2023,01:50:10,0.001,0.0,0.0,0.0
29/04/2023,01:51:10,-0.001,0.0,0.0,0.0
29/04/2023,01:52:10,0.001,0.0,0.0,0.0
29/04/2023,01:53:10,-0.001,0.0,0.0,0.0
29/04/2023,01:54:11,0.001,0.0,0.0,0.0
29/04/2023,01:55:10,-0.000,0.0,0.0,0.0
29/04/2023,01:56:10,-0.000,0.0,0.0,0.0
29/04/2023,01:57:10,-0.000,0.0,0.0,0.0
29/04/2023,01:58:10,0.001,0.0,0.0,0.0
29/04/2023,01:59:11,0.000,0.0,0.0,0.0
29/04/2023,02:00:10,-0.000,0.0,0.0,0.0
29/04/2023,02:01:10,0.001,0.0,0.0,0.0
29/04/2023,02:02:10,0.000,0.0,0.0,0.0
29/04/2023,02:03:10,0.001,0.0,0.0,0.0
29/04/2023,02:04:10,0.001,0.0,0.0,0.0
29/04/2023,02:05:10,0.000,0.0,0.0,0.0
29/04/2023,02:06:10,0.000,0.0,0.0,0.0
29/04/2023,02:07:10,0.000,0.0,0.0,0.0
29/04/2023,02:08:10,0.001,0.0,0.0,0.0
29/04/2023,02:09:10,0.001,0.0,0.0,0.0
29/04/2023,02:10:10,-0.001,0.0,0.0,0.0
29/04/2023,02:11:10,0.001,0.0,0.0,0.0
29/04/2023,02:12:10,0.000,0.0,0.0,0.0
29/04/2023,02:13:10,0.001,0.0,0.0,0.0
29/04/2023,02:14:10,0.001,0.0,0.0,0.0
29/04/2023,02:15:10,0.001,0.0,0.0,0.0
29/04/2023,02:16:10,0.001,0.0,0.0,0.0
29/04/2023,02:17:10,0.002,0.0,0.0,0.0
29/04/2023,02:18:10,0.001,0.0,0.0,0.0
29/04/2023,02:19:10,0.001,0.0,0.0,0.0
29/04/2023,02:20:10,0.001,0.0,0.0,0.0
29/04/2023,02:21:10,0.001,0.0,0.0,0.0
29/04/2023,02:22:10,0.001,0.0,0.0,0.0
29/04/2023,02:23:10,0.001,0.0,0.0,0.0
29/04/2023,02:24:10,0.001,0.0,0.0,0.0
29/04/2023,02:25:10,0.001,0.0,0.0,0.0
29/04/2023,02:26:10,0.001,0.0,0.0,0.0
29/04/2023,02:27:10,0.001,0.0,0.0,0.0
29/04/2023,02:28:10,0.001,0.0,0.0,0.0
29/04/2023,02:29:10,-0.000,0.0,0.0,0.0
29/04/2023,02:30:10,0.001,0.0,0.0,0.0
29/04/2023,02:31:10,0.001,0.0,0.0,0.0
29/04/2023,02:32:10,0.001,0.0,0.0,0.0
29/04/2023,02:33:10,0.001,0.0,0.0,0.0
29/04/2023,02:34:10,0.000,0.0,0.0,0.0
29/04/2023,02:35:10,0.001,0.0,0.0,0.0
29/04/2023,02:36:10,0.001,0.0,0.0,0.0
29/04/2023,02:37:10,0.002,0.0,0.0,0.0
29/04/2023,02:38:10,0.002,0.0,0.0,0.0
29/04/2023,02:39:10,0.001,0.0,0.0,0.0
29/04/2023,02:40:11,0.001,0.0,0.0,0.0
29/04/2023,02:41:10,0.001,0.0,0.0,0.0
29/04/2023,02:42:10,0.002,0.0,0.0,0.0
29/04/2023,02:43:10,0.001,0.0,0.0,0.0
29/04/2023,02:44:10,0.000,0.0,0.0,0.0
29/04/2023,02:45:10,0.001,0.0,0.0,0.0
29/04/2023,02:46:10,0.001,0.0,0.0,0.0
29/04/2023,02:47:10,0.001,0.0,0.0,0.0
29/04/2023,02:48:10,0.000,0.0,0.0,0.0
29/04/2023,02:49:11,0.001,0.0,0.0,0.0
29/04/2023,02:50:11,0.001,0.0,0.0,0.0
29/04/2023,02:51:10,0.001,0.0,0.0,0.0
29/04/2023,02:52:10,0.002,0.0,0.0,0.0
29/04/2023,02:53:10,0.001,0.0,0.0,0.0
29/04/2023,02:54:10,0.001,0.0,0.0,0.0
29/04/2023,02:55:10,-0.000,0.0,0.0,0.0
29/04/2023,02:56:10,0.000,0.0,0.0,0.0
29/04/2023,02:57:10,0.000,0.0,0.0,0.0
29/04/2023,02:58:10,0.000,0.0,0.0,0.0
29/04/2023,02:59:10,0.001,0.0,0.0,0.0
29/04/2023,03:00:10,0.000,0.0,0.0,0.0
29/04/2023,03:01:10,0.001,0.0,0.0,0.0
29/04/2023,03:02:10,0.001,0.0,0.0,0.0
29/04/2023,03:03:11,0.002,0.0,0.0,0.0
29/04/2023,03:04:10,0.001,0.0,0.0,0.0
29/04/2023,03:05:10,0.001,0.0,0.0,0.0
29/04/2023,03:06:10,0.000,0.0,0.0,0.0
29/04/2023,03:07:10,0.001,0.0,0.0,0.0
29/04/2023,03:08:10,0.002,0.0,0.0,0.0
29/04/2023,03:09:10,0.001,0.0,0.0,0.0
29/04/2023,03:10:10,0.001,0.0,0.0,0.0
29/04/2023,03:11:10,0.002,0.0,0.0,0.0
29/04/2023,03:12:10,0.001,0.0,0.0,0.0
29/04/2023,03:13:10,0.000,0.0,0.0,0.0
29/04/2023,03:14:10,0.001,0.0,0.0,0.0
29/04/2023,03:15:10,0.002,0.0,0.0,0.0
29/04/2023,03:16:10,0.001,0.0,0.0,0.0
29/04/2023,03:17:10,0.002,0.0,0.0,0.0
29/04/2023,03:18:11,0.001,0.0,0.0,0.0
29/04/2023,03:19:10,0.001,0.0,0.0,0.0
29/04/2023,03:20:11,0.000,0.0,0.0,0.0
29/04/2023,03:21:10,0.001,0.0,0.0,0.0
29/04/2023,03:22:10,0.001,0.0,0.0,0.0
29/04/2023,03:23:10,0.002,0.0,0.0,0.0
29/04/2023,03:24:10,-0.000,0.0,0.0,0.0
29/04/2023,03:25:10,0.001,0.0,0.0,0.0
29/04/2023,03:26:10,0.002,0.0,0.0,0.0
29/04/2023,03:27:11,0.001,0.0,0.0,0.0
29/04/2023,03:28:11,0.000,0.0,0.0,0.0
29/04/2023,03:29:10,-0.000,0.0,0.0,0.0
29/04/2023,03:30:11,0.001,0.0,0.0,0.0
29/04/2023,03:31:11,0.000,0.0,0.0,0.0
29/04/2023,03:32:10,0.000,0.0,0.0,0.0
29/04/2023,03:33:10,0.001,0.0,0.0,0.0
29/04/2023,03:34:10,0.001,0.0,0.0,0.0
29/04/2023,03:35:10,0.001,0.0,0.0,0.0
29/04/2023,03:36:11,0.001,0.0,0.0,0.0
29/04/2023,03:37:10,0.001,0.0,0.0,0.0
29/04/2023,03:38:10,0.000,0.0,0.0,0.0
29/04/2023,03:39:10,0.000,0.0,0.0,0.0
29/04/2023,03:40:11,0.001,0.0,0.0,0.0
29/04/2023,03:41:11,0.000,0.0,0.0,0.0
29/04/2023,03:42:10,0.001,0.0,0.0,0.0
29/04/2023,03:43:10,0.001,0.0,0.0,0.0
29/04/2023,03:44:10,0.001,0.0,0.0,0.0
29/04/2023,03:45:10,0.001,0.0,0.0,0.0
29/04/2023,03:46:10,0.001,0.0,0.0,0.0
29/04/2023,03:47:10,0.001,0.0,0.0,0.0
29/04/2023,03:48:10,0.001,0.0,0.0,0.0
29/04/2023,03:49:10,0.001,0.0,0.0,0.0
29/04/2023,03:50:10,0.000,0.0,0.0,0.0
29/04/2023,03:51:10,0.002,0.0,0.0,0.0
29/04/2023,03:52:11,0.002,0.0,0.0,0.0
29/04/2023,03:53:10,0.001,0.0,0.0,0.0
29/04/2023,03:54:10,0.001,0.0,0.0,0.0
29/04/2023,03:55:10,0.002,0.0,0.0,0.0
29/04/2023,03:56:10,0.002,0.0,0.0,0.0
29/04/2023,03:57:10,0.002,0.0,0.0,0.0
29/04/2023,03:58:10,0.001,0.0,0.0,0.0
29/04/2023,03:59:11,0.002,0.0,0.0,0.0
29/04/2023,04:00:11,0.001,0.0,0.0,0.0
29/04/2023,04:01:11,0.001,0.0,0.0,0.0
29/04/2023,04:02:10,0.001,0.0,0.0,0.0
29/04/2023,04:03:10,0.001,0.0,0.0,0.0
29/04/2023,04:04:10,0.000,0.0,0.0,0.0
29/04/2023,04:05:10,0.001,0.0,0.0,0.0
29/04/2023,04:06:10,0.001,0.0,0.0,0.0
29/04/2023,04:07:10,0.000,0.0,0.0,0.0
29/04/2023,04:08:11,0.001,0.0,0.0,0.0
29/04/2023,04:09:11,0.001,0.0,0.0,0.0
29/04/2023,04:10:10,0.001,0.0,0.0,0.0
29/04/2023,04:11:10,0.002,0.0,0.0,0.0
29/04/2023,04:12:10,0.002,0.0,0.0,0.0
29/04/2023,04:13:10,0.001,0.0,0.0,0.0
29/04/2023,04:14:10,0.001,0.0,0.0,0.0
29/04/2023,04:15:10,0.001,0.0,0.0,0.0
29/04/2023,04:16:11,0.002,0.0,0.0,0.0
29/04/2023,04:17:10,0.002,0.0,0.0,0.0
29/04/2023,04:18:10,0.002,0.0,0.0,0.0
29/04/2023,04:19:10,0.002,0.0,0.0,0.0
29/04/2023,04:20:10,0.002,0.0,0.0,0.0
29/04/2023,04:21:10,0.002,0.0,0.0,0.0
29/04/2023,04:22:10,0.002,0.0,0.0,0.0
29/04/2023,04:23:10,0.002,0.0,0.0,0.0
29/04/2023,04:24:10,0.002,0.0,0.0,0.0
29/04/2023,04:25:11,0.002,0.0,0.0,0.0
29/04/2023,04:26:10,0.002,0.0,0.0,0.0
29/04/2023,04:27:10,0.002,0.0,0.0,0.0
29/04/2023,04:28:11,0.002,0.0,0.0,0.0
29/04/2023,04:29:10,0.002,0.0,0.0,0.0
29/04/2023,04:30:10,0.002,0.0,0.0,0.0
29/04/2023,04:31:10,0.002,0.0,0.0,0.0
29/04/2023,04:32:10,0.002,0.0,0.0,0.0
29/04/2023,04:33:12,0.002,0.0,0.0,0.0
29/04/2023,04:34:10,0.003,0.0,0.0,0.0
29/04/2023,04:35:10,0.003,0.0,0.0,0.0
29/04/2023,04:36:10,0.003,0.0,0.0,0.0
29/04/2023,04:37:10,0.003,0.0,0.0,0.0
29/04/2023,04:38:10,0.003,0.0,0.0,0.0
29/04/2023,04:39:10,0.003,0.0,0.0,0.0
29/04/2023,04:40:10,0.004,0.0,0.0,0.0
29/04/2023,04:41:10,0.003,0.0,0.0,0.0
29/04/2023,04:42:10,0.003,0.0,0.0,0.0
29/04/2023,04:43:11,0.003,0.0,0.0,0.0
29/04/2023,04:44:10,0.004,0.0,0.0,0.0
29/04/2023,04:45:10,0.005,0.0,0.0,0.0
29/04/2023,04:46:10,0.004,0.0,0.0,0.0
29/04/2023,04:47:11,0.004,0.0,0.0,0.0
29/04/2023,04:48:11,0.006,0.0,0.0,0.0
29/04/2023,04:49:10,0.006,0.0,0.0,0.0
29/04/2023,04:50:10,0.005,0.0,0.0,0.0
29/04/2023,04:51:10,0.004,0.0,0.0,0.0
29/04/2023,04:52:10,0.005,0.0,0.0,0.0
29/04/2023,04:53:10,0.007,0.0,0.0,0.0
29/04/2023,04:54:10,0.007,0.0,0.0,0.0
29/04/2023,04:55:11,0.007,0.0,0.0,0.0
29/04/2023,04:56:10,0.007,0.0,0.0,0.0
29/04/2023,04:57:10,0.007,0.0,0.0,0.0
29/04/2023,04:58:10,0.007,0.0,0.001,0.001
29/04/2023,04:59:10,0.007,0.0,0.001,0.0
29/04/2023,05:00:10,0.009,0.0,0.001,0.0
29/04/2023,05:01:10,0.007,0.0,0.001,0.0
29/04/2023,05:02:10,0.008,0.0,0.001,0.0
29/04/2023,05:03:10,0.010,0.0,0.001,0.0
29/04/2023,05:04:10,0.009,0.0,0.001,0.0
29/04/2023,05:05:10,0.010,0.0,0.002,0.001
29/04/2023,05:06:10,0.010,0.0,0.002,0.0
29/04/2023,05:07:10,0.010,0.0,0.002,0.0
29/04/2023,05:08:10,0.011,0.0,0.002,0.0
29/04/2023,05:09:10,0.011,0.0,0.002,0.0
29/04/2023,05:10:10,0.012,0.0,0.002,0.0
29/04/2023,05:11:11,0.012,0.0,0.003,0.001
29/04/2023,05:12:10,0.011,0.0,0.003,0.0
29/04/2023,05:13:10,0.013,0.0,0.003,0.0
29/04/2023,05:14:10,0.013,0.0,0.003,0.0
29/04/2023,05:15:11,0.014,0.0,0.003,0.0
29/04/2023,05:16:10,0.014,0.0,0.004,0.001
29/04/2023,05:17:10,0.015,0.0,0.004,0.0
29/04/2023,05:18:10,0.016,0.0,0.004,0.0
29/04/2023,05:19:11,0.016,0.0,0.004,0.0
29/04/2023,05:20:11,0.016,0.0,0.005,0.001
29/04/2023,05:21:10,0.016,0.0,0.005,0.0
29/04/2023,05:22:10,0.018,0.0,0.005,0.0
29/04/2023,05:23:10,0.018,0.0,0.006,0.001
29/04/2023,05:24:10,0.019,0.0,0.006,0.0
29/04/2023,05:25:10,0.020,0.0,0.006,0.0
29/04/2023,05:26:10,0.021,0.0,0.007,0.001
29/04/2023,05:27:10,0.022,0.0,0.007,0.0
29/04/2023,05:28:11,0.022,0.0,0.007,0.0
29/04/2023,05:29:11,0.023,0.0,0.008,0.001
29/04/2023,05:30:10,0.023,0.0,0.008,0.0
29/04/2023,05:31:10,0.024,0.0,0.008,0.0
29/04/2023,05:32:10,0.025,0.0,0.009,0.001
29/04/2023,05:33:10,0.025,0.0,0.009,0.0
29/04/2023,05:34:10,0.026,0.0,0.01,0.001
29/04/2023,05:35:10,0.027,0.0,0.01,0.0
29/04/2023,05:36:11,0.028,0.0,0.011,0.001
29/04/2023,05:37:10,0.029,0.0,0.011,0.0
29/04/2023,05:38:10,0.029,0.0,0.012,0.001
29/04/2023,05:39:10,0.030,0.0,0.012,0.0
29/04/2023,05:40:10,0.032,0.0,0.013,0.001
29/04/2023,05:41:10,0.033,0.0,0.013,0.0
29/04/2023,05:42:10,0.034,0.0,0.014,0.001
29/04/2023,05:43:10,0.035,0.0,0.014,0.0
29/04/2023,05:44:10,0.036,0.0,0.015,0.001
29/04/2023,05:45:10,0.037,0.0,0.015,0.0
29/04/2023,05:46:11,0.038,0.0,0.016,0.001
29/04/2023,05:47:10,0.040,0.0,0.017,0.001
29/04/2023,05:48:10,0.040,0.0,0.017,0.0
29/04/2023,05:49:10,0.041,0.0,0.018,0.001
29/04/2023,05:50:11,0.043,0.0,0.019,0.001
29/04/2023,05:51:11,0.044,0.0,0.019,0.0
29/04/2023,05:52:10,0.045,0.0,0.02,0.001
29/04/2023,05:53:09,0.047,0.0,0.021,0.001
29/04/2023,05:54:10,0.048,0.0,0.022,0.001
29/04/2023,05:55:10,0.049,0.0,0.023,0.001
29/04/2023,05:56:10,0.051,0.0,0.023,0.0
29/04/2023,05:57:11,0.052,0.0,0.024,0.001
29/04/2023,05:58:11,0.053,0.0,0.025,0.001
29/04/2023,05:59:11,0.055,0.0,0.026,0.001
29/04/2023,06:00:10,0.055,0.0,0.027,0.001
29/04/2023,06:01:10,0.057,0.0,0.028,0.001
29/04/2023,06:02:10,0.059,0.0,0.029,0.001
29/04/2023,06:03:10,0.060,0.0,0.03,0.001
29/04/2023,06:04:10,0.062,0.0,0.031,0.001
29/04/2023,06:05:10,0.064,0.0,0.032,0.001
29/04/2023,06:06:10,0.064,0.0,0.033,0.001
29/04/2023,06:07:10,0.066,0.0,0.034,0.001
29/04/2023,06:08:10,0.068,0.0,0.035,0.001
29/04/2023,06:09:12,0.070,0.0,0.036,0.001
29/04/2023,06:10:11,0.071,0.0,0.037,0.001
29/04/2023,06:11:11,0.073,0.0,0.039,0.002
29/04/2023,06:12:11,0.075,0.0,0.04,0.001
29/04/2023,06:13:11,0.076,0.0,0.041,0.001
29/04/2023,06:14:10,0.078,0.0,0.042,0.001
29/04/2023,06:15:10,0.079,0.0,0.044,0.002
29/04/2023,06:16:10,0.080,0.0,0.045,0.001
29/04/2023,06:17:11,0.083,0.0,0.046,0.001
29/04/2023,06:18:10,0.085,0.0,0.048,0.002
29/04/2023,06:19:10,0.087,0.0,0.049,0.001
29/04/2023,06:20:11,0.090,0.0,0.051,0.002
29/04/2023,06:21:11,0.094,0.0,0.052,0.001
29/04/2023,06:22:10,0.095,0.0,0.054,0.002
29/04/2023,06:23:11,0.098,0.0,0.055,0.001
29/04/2023,06:24:10,0.102,0.0,0.057,0.002
29/04/2023,06:25:10,0.103,0.0,0.059,0.002
29/04/2023,06:26:11,0.105,0.0,0.061,0.002
29/04/2023,06:27:11,0.108,0.0,0.062,0.001
29/04/2023,06:28:10,0.110,0.0,0.064,0.002
29/04/2023,06:29:11,0.113,0.0,0.066,0.002
29/04/2023,06:30:11,0.115,0.0,0.068,0.002
29/04/2023,06:31:10,0.117,0.0,0.07,0.002
29/04/2023,06:32:11,0.119,0.0,0.072,0.002
29/04/2023,06:33:11,0.119,0.0,0.074,0.002
29/04/2023,06:34:11,0.119,0.0,0.076,0.002
29/04/2023,06:35:11,0.124,0.0,0.078,0.002
29/04/2023,06:36:10,0.126,0.0,0.08,0.002
29/04/2023,06:37:10,0.130,0.0,0.082,0.002
29/04/2023,06:38:11,0.132,0.0,0.084,0.002
29/04/2023,06:39:10,0.135,0.0,0.086,0.002
29/04/2023,06:40:10,0.138,0.0,0.089,0.003
29/04/2023,06:41:10,0.141,0.0,0.091,0.002
29/04/2023,06:42:10,0.144,0.0,0.093,0.002
29/04/2023,06:43:11,0.146,0.0,0.096,0.003
29/04/2023,06:44:11,0.151,0.0,0.098,0.002
29/04/2023,06:45:11,0.152,0.0,0.101,0.003
29/04/2023,06:46:11,0.155,0.0,0.103,0.002
29/04/2023,06:47:10,0.158,0.0,0.106,0.003
29/04/2023,06:48:11,0.157,0.0,0.109,0.003
29/04/2023,06:49:11,0.161,0.0,0.111,0.002
29/04/2023,06:50:10,0.172,0.0,0.114,0.003
29/04/2023,06:51:10,0.175,0.0,0.117,0.003
29/04/2023,06:52:10,0.180,0.0,0.12,0.003
29/04/2023,06:53:10,0.183,0.0,0.123,0.003
29/04/2023,06:54:11,0.187,0.0,0.126,0.003
29/04/2023,06:55:11,0.190,0.0,0.129,0.003
29/04/2023,06:56:10,0.193,0.0,0.132,0.003
29/04/2023,06:57:10,0.197,0.0,0.136,0.004
29/04/2023,06:58:10,0.200,0.0,0.139,0.003
29/04/2023,06:59:11,0.205,0.0,0.142,0.003
29/04/2023,07:00:11,0.209,0.0,0.146,0.004
29/04/2023,07:01:10,0.212,0.0,0.149,0.003
29/04/2023,07:02:10,0.213,0.0,0.153,0.004
29/04/2023,07:03:10,0.214,0.0,0.156,0.003
29/04/2023,07:04:10,0.221,1.0,0.16,0.004
29/04/2023,07:05:11,0.218,1.0,0.164,0.004
29/04/2023,07:06:10,0.221,1.0,0.167,0.003
29/04/2023,07:07:11,0.218,1.0,0.171,0.004
29/04/2023,07:08:11,0.224,1.0,0.175,0.004
29/04/2023,07:09:11,0.225,1.0,0.178,0.003
29/04/2023,07:10:11,0.224,1.0,0.182,0.004
29/04/2023,07:11:11,0.230,1.0,0.186,0.004
29/04/2023,07:12:10,0.236,1.0,0.19,0.004
29/04/2023,07:13:10,0.234,1.0,0.194,0.004
29/04/2023,07:14:10,0.241,1.0,0.198,0.004
29/04/2023,07:15:09,0.246,1.0,0.202,0.004
29/04/2023,07:16:33,0.268,1.0,0.207,0.005
29/04/2023,07:18:11,0.285,1.0,0.215,0.008
29/04/2023,07:19:10,0.290,1.0,0.22,0.005
29/04/2023,07:20:11,0.296,1.0,0.225,0.005
29/04/2023,07:21:11,0.300,1.0,0.23,0.005
29/04/2023,07:22:11,0.304,1.0,0.235,0.005
29/04/2023,07:23:11,0.311,1.0,0.24,0.005
29/04/2023,07:24:11,0.317,1.0,0.245,0.005
29/04/2023,07:25:10,0.322,1.0,0.25,0.005
29/04/2023,07:26:11,0.328,1.0,0.256,0.006
29/04/2023,07:27:10,0.334,1.0,0.261,0.005
29/04/2023,07:28:10,0.338,1.0,0.267,0.006
29/04/2023,07:29:10,0.341,1.0,0.273,0.006
29/04/2023,07:30:10,0.337,1.0,0.278,0.005
29/04/2023,07:31:10,0.352,1.0,0.284,0.006
29/04/2023,07:32:10,0.357,1.0,0.29,0.006
29/04/2023,07:33:11,0.363,1.0,0.296,0.006
29/04/2023,07:34:10,0.370,1.0,0.302,0.006
29/04/2023,07:35:10,0.374,1.0,0.308,0.006
29/04/2023,07:36:11,0.379,1.0,0.315,0.007
29/04/2023,07:37:11,0.382,1.0,0.321,0.006
29/04/2023,07:38:11,0.386,1.0,0.327,0.006
29/04/2023,07:39:11,0.387,1.0,0.334,0.007
29/04/2023,07:40:11,0.383,1.0,0.34,0.006
29/04/2023,07:41:10,0.380,1.0,0.346,0.006
29/04/2023,07:42:10,0.384,1.0,0.353,0.007
29/04/2023,07:43:10,0.392,1.0,0.359,0.006
29/04/2023,07:44:10,0.400,1.0,0.366,0.007
29/04/2023,07:45:11,0.414,1.0,0.373,0.007
29/04/2023,07:46:11,0.427,1.0,0.38,0.007
29/04/2023,07:47:11,0.438,1.0,0.387,0.007
29/04/2023,07:48:10,0.448,1.0,0.394,0.007
29/04/2023,07:49:11,0.458,1.0,0.402,0.008
29/04/2023,07:50:11,0.465,1.0,0.41,0.008
29/04/2023,07:51:11,0.475,1.0,0.417,0.007
29/04/2023,07:52:11,0.487,1.0,0.425,0.008
29/04/2023,07:53:10,0.497,1.0,0.433,0.008
29/04/2023,07:54:10,0.505,1.0,0.442,0.009
29/04/2023,07:55:10,0.512,1.0,0.45,0.008
29/04/2023,07:56:11,0.526,1.0,0.459,0.009
29/04/2023,07:57:10,0.535,1.0,0.468,0.009
29/04/2023,07:58:11,0.542,1.0,0.477,0.009
29/04/2023,07:59:11,0.557,1.0,0.486,0.009
29/04/2023,08:00:11,0.522,1.0,0.495,0.009
29/04/2023,08:01:11,0.546,1.0,0.504,0.009
29/04/2023,08:02:11,0.577,1.0,0.513,0.009
29/04/2023,08:03:10,0.512,1.0,0.522,0.009
29/04/2023,08:04:10,0.592,1.0,0.532,0.01
29/04/2023,08:05:11,0.582,1.0,0.541,0.009
29/04/2023,08:06:11,0.604,1.0,0.551,0.01
29/04/2023,08:07:11,0.604,1.0,0.561,0.01
29/04/2023,08:08:11,0.606,1.0,0.571,0.01
29/04/2023,08:09:11,0.599,1.0,0.581,0.01
29/04/2023,08:10:11,0.572,1.0,0.591,0.01
29/04/2023,08:11:11,0.463,1.0,0.6,0.009
29/04/2023,08:12:10,0.497,1.0,0.608,0.008
29/04/2023,08:13:10,0.499,1.0,0.616,0.008
29/04/2023,08:14:11,0.538,1.0,0.624,0.008
29/04/2023,08:15:11,0.489,1.0,0.633,0.009
29/04/2023,08:16:11,0.523,1.0,0.641,0.008
29/04/2023,08:17:11,0.644,1.0,0.651,0.01
29/04/2023,08:18:10,0.664,2.0,0.662,0.011
29/04/2023,08:19:11,0.686,2.0,0.673,0.011
29/04/2023,08:20:11,0.686,2.0,0.684,0.011
29/04/2023,08:21:11,0.660,2.0,0.696,0.012
29/04/2023,08:22:11,0.645,1.0,0.706,0.01
29/04/2023,08:23:11,0.628,1.0,0.716,0.01
29/04/2023,08:24:10,0.665,2.0,0.727,0.011
29/04/2023,08:25:11,0.598,1.0,0.738,0.011
29/04/2023,08:26:11,0.654,2.0,0.748,0.01
29/04/2023,08:27:11,0.605,1.0,0.759,0.011
29/04/2023,08:28:11,0.706,2.0,0.769,0.01
29/04/2023,08:29:10,0.687,2.0,0.781,0.012
29/04/2023,08:30:41,0.741,2.0,0.799,0.018
29/04/2023,08:32:11,0.760,2.0,0.818,0.019
29/04/2023,08:33:10,0.770,2.0,0.831,0.013
29/04/2023,08:34:11,0.717,2.0,0.843,0.012
29/04/2023,08:35:10,0.772,2.0,0.856,0.013
29/04/2023,08:36:11,0.774,2.0,0.869,0.013
29/04/2023,08:37:11,0.785,2.0,0.882,0.013
29/04/2023,08:38:10,0.784,2.0,0.895,0.013
29/04/2023,08:39:11,0.800,2.0,0.908,0.013
29/04/2023,08:40:11,0.808,2.0,0.921,0.013
29/04/2023,08:41:11,0.811,2.0,0.935,0.014
29/04/2023,08:42:10,0.826,2.0,0.948,0.013
29/04/2023,08:43:11,0.839,2.0,0.962,0.014
29/04/2023,08:44:11,0.845,2.0,0.976,0.014
29/04/2023,08:45:11,0.864,2.0,0.99,0.014
29/04/2023,08:46:10,0.850,2.0,1.005,0.015
29/04/2023,08:47:11,0.862,2.0,1.019,0.014
29/04/2023,08:48:11,0.858,2.0,1.033,0.014
29/04/2023,08:49:11,0.879,2.0,1.048,0.015
29/04/2023,08:50:10,0.896,2.0,1.062,0.014
29/04/2023,08:51:10,0.918,2.0,1.077,0.015
29/04/2023,08:52:10,0.935,2.0,1.093,0.016
29/04/2023,08:53:11,0.962,2.0,1.109,0.016
29/04/2023,08:54:11,0.971,2.0,1.125,0.016
29/04/2023,08:55:11,0.992,2.0,1.141,0.016
29/04/2023,08:56:11,0.950,2.0,1.157,0.016
29/04/2023,08:57:11,0.896,2.0,1.173,0.016
29/04/2023,08:58:10,0.902,2.0,1.188,0.015
29/04/2023,08:59:10,0.952,2.0,1.203,0.015
29/04/2023,09:00:11,0.960,2.0,1.219,0.016
29/04/2023,09:01:11,0.819,2.0,1.235,0.016
29/04/2023,09:02:10,0.856,2.0,1.249,0.014
29/04/2023,09:03:11,0.916,2.0,1.264,0.015
29/04/2023,09:04:11,1.066,2.0,1.28,0.016
29/04/2023,09:05:10,0.983,2.0,1.296,0.016
29/04/2023,09:06:11,0.837,2.0,1.31,0.014
29/04/2023,09:07:11,0.789,2.0,1.324,0.014
29/04/2023,09:08:11,0.793,2.0,1.337,0.013
29/04/2023,09:09:10,0.837,2.0,1.35,0.013
29/04/2023,09:10:11,0.826,2.0,1.364,0.014
29/04/2023,09:11:11,0.939,2.0,1.379,0.015
29/04/2023,09:12:11,0.831,2.0,1.393,0.014
29/04/2023,09:13:10,0.844,2.0,1.407,0.014
29/04/2023,09:14:10,0.832,2.0,1.421,0.014
29/04/2023,09:15:11,0.806,2.0,1.435,0.014
29/04/2023,09:16:11,0.803,2.0,1.448,0.013
29/04/2023,09:17:10,0.806,2.0,1.462,0.014
29/04/2023,09:18:11,0.818,2.0,1.475,0.013
29/04/2023,09:19:11,0.850,2.0,1.489,0.014
29/04/2023,09:20:11,0.857,2.0,1.503,0.014
29/04/2023,09:21:11,0.870,2.0,1.518,0.015
29/04/2023,09:22:11,0.883,2.0,1.532,0.014
29/04/2023,09:23:11,1.018,2.0,1.548,0.016
29/04/2023,09:24:10,1.073,2.0,1.566,0.018
29/04/2023,09:25:11,1.299,3.0,1.585,0.019
29/04/2023,09:26:11,1.126,3.0,1.604,0.019
29/04/2023,09:27:11,1.177,3.0,1.623,0.019
29/04/2023,09:28:11,1.295,3.0,1.644,0.021
29/04/2023,09:29:10,1.271,3.0,1.665,0.021
29/04/2023,09:30:10,1.186,3.0,1.685,0.02
29/04/2023,09:31:11,1.201,3.0,1.706,0.021
29/04/2023,09:32:11,1.221,3.0,1.725,0.019
29/04/2023,09:33:11,1.198,3.0,1.745,0.02
29/04/2023,09:34:10,1.126,3.0,1.765,0.02
29/04/2023,09:35:11,1.295,3.0,1.784,0.019
29/04/2023,09:36:11,1.380,3.0,1.807,0.023
29/04/2023,09:37:11,1.111,3.0,1.828,0.021
29/04/2023,09:38:11,1.253,3.0,1.847,0.019
29/04/2023,09:39:10,1.173,3.0,1.866,0.019
29/04/2023,09:40:10,1.202,3.0,1.885,0.019
29/04/2023,09:41:11,1.291,3.0,1.906,0.021
29/04/2023,09:42:11,1.175,3.0,1.926,0.02
29/04/2023,09:43:11,1.025,2.0,1.944,0.018
29/04/2023,09:44:11,1.123,3.0,1.962,0.018
29/04/2023,09:45:10,1.197,3.0,1.981,0.019
29/04/2023,09:46:10,1.046,2.0,2.0,0.019
29/04/2023,09:47:11,1.025,2.0,2.017,0.017
29/04/2023,09:48:11,1.074,2.0,2.034,0.017
29/04/2023,09:49:11,1.121,3.0,2.055,0.021
29/04/2023,09:50:11,1.102,3.0,2.074,0.019
29/04/2023,09:51:11,1.231,3.0,2.093,0.019
29/04/2023,09:52:11,1.287,3.0,2.114,0.021
29/04/2023,09:53:11,1.382,3.0,2.137,0.023
29/04/2023,09:54:10,1.400,3.0,2.16,0.023
29/04/2023,09:55:11,1.386,3.0,2.183,0.023
29/04/2023,09:56:11,1.402,3.0,2.206,0.023
29/04/2023,09:57:11,1.404,3.0,2.23,0.024
29/04/2023,09:58:11,1.413,3.0,2.254,0.024
29/04/2023,09:59:11,1.413,3.0,2.277,0.023
29/04/2023,10:00:11,1.426,3.0,2.301,0.024
29/04/2023,10:01:11,1.434,3.0,2.325,0.024